Weather History for New Iberia, LA

Change the Weather History Date:

Thursday, August 14, 2014

  Actual Average Record
Temperature  
Mean Temperature 81 °F 83 °F  
Max Temperature 92 °F 92 °F 100 °F (1948)
Min Temperature 70 °F 74 °F 59 °F (2004)
Degree Days  
Heating Degree Days 0 0  
Month to date heating degree days 0 0  
Since 1 June heating degree days 0 0  
Since 1 July heating degree days 0 0  
Cooling Degree Days 16 18  
Month to date cooling degree days 258 252  
Year to date cooling degree days 1787 1840  
Since 1 June cooling degree days 1301 1270  
Growing Degree Days 30 (Base 50)    
Moisture  
Dew Point 66 °F    
Average Humidity 63    
Maximum Humidity 84    
Minimum Humidity 41    
Precipitation  
Precipitation 0.00 in 0.12 in 2.76 in (1977)
Month to date precipitation 1.74 2.24  
Year to date precipitation 35.09 38.01  
Sea Level Pressure  
Sea Level Pressure 30.02 in    
Wind  
Wind Speed 6 mph (NNE)    
Max Wind Speed 12 mph    
Max Gust Speed 17 mph    
Visibility 10 miles    
Events      
T = Trace of Precipitation, MM = Missing Value Source: NWS Daily Summary

Daily Weather History Graph

Daily Weather History Graph

Search for Another Location

Airport:

Trip Planner

Search our weather history database for the weather conditions in past years. The results will help you decide how hot, cold, wet, or windy it might be!

Date:

Astronomy

Aug. 14, 2014 Rise Set
Actual Time 6:34 AM CDT 7:49 PM CDT
Civil Twilight 6:09 AM CDT 8:14 PM CDT
Nautical Twilight 5:39 AM CDT 8:44 PM CDT
Astronomical Twilight 5:07 AM CDT 9:15 PM CDT
Moon 10:38 PM CDT (8/14) 10:48 AM CDT (8/14)
Length of Visible Light 14h 05m
Length of Day
13h 15m
Waning Gibbous, 79% of the Moon is Illuminated
Aug 14
Waning Gibbous
Aug 17
Last Quarter
Aug 25
New
Sep 2
First Quarter
Sep 8
Full

Hourly Weather History & Observations

Time (CDT) Temp. Heat Index Dew Point Humidity Pressure Visibility Wind Dir Wind Speed Gust Speed Precip Events Conditions
12:53 AM 73.0 °F - 66.9 °F 81% 30.02 in 10.0 mi NNE 8.1 mph - N/A   Clear
1:53 AM 73.9 °F - 66.9 °F 79% 30.02 in 8.0 mi NNE 6.9 mph - N/A   Clear
2:53 AM 73.0 °F - 66.0 °F 79% 30.01 in 10.0 mi NNE 6.9 mph - N/A   Clear
3:53 AM 73.0 °F - 66.0 °F 79% 30.01 in 10.0 mi NE 8.1 mph - N/A   Clear
4:53 AM 71.1 °F - 66.0 °F 84% 30.02 in 10.0 mi NNW 3.5 mph - N/A   Clear
5:53 AM 71.1 °F - 66.0 °F 84% 30.02 in 10.0 mi North 4.6 mph - N/A   Scattered Clouds
6:53 AM 70.0 °F - 64.9 °F 84% 30.04 in 10.0 mi North 5.8 mph - N/A   Clear
7:53 AM 75.0 °F - 66.0 °F 73% 30.05 in 8.0 mi NNE 5.8 mph - N/A   Clear
8:53 AM 77.0 °F - 66.0 °F 69% 30.06 in 10.0 mi NE 8.1 mph - N/A   Clear
9:53 AM 81.0 °F 83.3 °F 66.9 °F 62% 30.06 in 10.0 mi NNE 5.8 mph - N/A   Clear
10:53 AM 84.9 °F 87.6 °F 66.9 °F 55% 30.06 in 10.0 mi North 5.8 mph - N/A   Clear
11:53 AM 88.0 °F 89.3 °F 64.0 °F 45% 30.05 in 10.0 mi NNW 4.6 mph - N/A   Clear
12:53 PM 89.1 °F 91.0 °F 64.9 °F 45% 30.04 in 10.0 mi North - - N/A   Clear
1:53 PM 88.0 °F 89.3 °F 64.0 °F 45% 30.03 in 10.0 mi Calm Calm - N/A   Clear
2:53 PM 90.0 °F 91.7 °F 64.9 °F 43% 30.01 in 10.0 mi Variable 5.8 mph - N/A   Clear
3:53 PM 90.0 °F 91.3 °F 64.0 °F 42% 29.99 in 10.0 mi Variable 4.6 mph - N/A   Clear
4:53 PM 91.0 °F 92.6 °F 64.0 °F 41% 29.99 in 10.0 mi NNW 6.9 mph - N/A   Clear
5:53 PM 90.0 °F 91.3 °F 64.0 °F 42% 29.98 in 10.0 mi NNW 6.9 mph - N/A   Clear
6:53 PM 87.1 °F 88.9 °F 64.9 °F 48% 29.98 in 10.0 mi NNE 5.8 mph - N/A   Clear
7:53 PM 82.9 °F 85.0 °F 66.0 °F 56% 29.99 in 10.0 mi NNE 4.6 mph - N/A   Clear
8:53 PM 80.1 °F 82.3 °F 66.9 °F 64% 29.99 in 7.0 mi NNE 3.5 mph - N/A   Clear
9:53 PM 75.9 °F - 68.0 °F 76% 29.99 in 10.0 mi NE 4.6 mph - N/A   Clear
10:53 PM 75.9 °F - 66.9 °F 74% 30.00 in 10.0 mi NE 4.6 mph - N/A   Clear
11:53 PM 75.0 °F - 66.9 °F 76% 30.00 in 10.0 mi NE 6.9 mph - N/A   Clear